When you browse on this site, cookies collect data to enhance your experience and personalize the content and advertising you see.
Visit our Privacy Policy to learn more. By continuing to use the site, you agree to this use of cookies and data.
  • In United Kingdom
  • List of Countries
  • For 7 days
  • Water Temperature
  • Satellite Maps
  • Weather Map
  • Weather Widgets
  • user-avatar
    Login

    Hourly Weather Namyur

    Today, 25 May, Saturday

    Time Temperature Precipitation Wind Pressure Humidity
    00:00 +8°C° 0 mm 0 mps 752 mmHg 78%
    01:00 +8°C° 0 mm 0 mps 752 mmHg 80%
    02:00 +8°C° 0 mm 0 mps 752 mmHg 81%
    03:00 +7°C° 0 mm 0 mps 752 mmHg 83%
    04:00 +8°C° 0 mm 0 mps 752 mmHg 80%
    05:00 +10°C° 0 mm 0 mps 752 mmHg 78%
    06:00 +11°C° 0 mm 0 mps 753 mmHg 76%
    07:00 +13°C° 0 mm 0 mps 753 mmHg 73%
    08:00 +15°C° 0 mm 1 mps 753 mmHg 70%
    09:00 +18°C° 0 mm 1 mps 753 mmHg 67%
    10:00 +18°C° 0.1 mm 1 mps 752 mmHg 69%
    11:00 +18°C° 0.1 mm 1 mps 752 mmHg 72%
    12:00 +18°C° 0.1 mm 1 mps 752 mmHg 74%
    13:00 +18°C° 0.1 mm 1 mps 752 mmHg 72%
    14:00 +19°C° 0.1 mm 1 mps 752 mmHg 69%
    15:00 +20°C° 0.1 mm 1 mps 752 mmHg 67%
    16:00 +19°C° 0.5 mm 1 mps 752 mmHg 72%
    17:00 +18°C° 0.5 mm 2 mps 751 mmHg 78%
    18:00 +17°C° 0.5 mm 2 mps 751 mmHg 83%
    19:00 +16°C° 0 mm 2 mps 752 mmHg 86%
    20:00 +14°C° 0 mm 2 mps 752 mmHg 89%
    21:00 +12°C° 0 mm 2 mps 752 mmHg 91%
    22:00 +12°C° 0 mm 2 mps 752 mmHg 91%
    23:00 +10°C° 0 mm 2 mps 752 mmHg 92%

    Tomorrow, 26 May, Sunday

    Time Temperature Precipitation Wind Pressure Humidity
    00:00 +9°C° 0 mm 2 mps 752 mmHg 92%
    01:00 +9°C° 0 mm 2 mps 752 mmHg 93%
    02:00 +9°C° 0 mm 2 mps 751 mmHg 93%
    03:00 +8°C° 0 mm 2 mps 751 mmHg 93%
    04:00 +9°C° 0 mm 3 mps 751 mmHg 93%
    05:00 +11°C° 0 mm 3 mps 751 mmHg 94%
    06:00 +12°C° 0 mm 4 mps 751 mmHg 94%
    07:00 +14°C° 0 mm 4 mps 751 mmHg 90%
    08:00 +17°C° 0 mm 4 mps 751 mmHg 86%
    09:00 +17°C° 0 mm 5 mps 751 mmHg 82%
    10:00 +19°C° 0.1 mm 5 mps 751 mmHg 80%
    11:00 +20°C° 0.1 mm 5 mps 750 mmHg 77%
    12:00 +21°C° 0.1 mm 6 mps 750 mmHg 74%
    13:00 +21°C° 0.2 mm 6 mps 750 mmHg 76%
    14:00 +20°C° 0.2 mm 6 mps 750 mmHg 77%
    15:00 +20°C° 0.2 mm 6 mps 749 mmHg 78%
    16:00 +19°C° 0.1 mm 6 mps 749 mmHg 80%
    17:00 +17°C° 0.1 mm 6 mps 749 mmHg 83%
    18:00 +17°C° 0.1 mm 5 mps 749 mmHg 85%
    19:00 +16°C° 0 mm 5 mps 749 mmHg 87%
    20:00 +15°C° 0 mm 5 mps 749 mmHg 89%
    21:00 +15°C° 0 mm 5 mps 749 mmHg 92%
    22:00 +15°C° 0.2 mm 5 mps 748 mmHg 93%
    23:00 +15°C° 0.2 mm 5 mps 748 mmHg 94%

    Day after tomorrow, 27 May, Monday

    Time Temperature Precipitation Wind Pressure Humidity
    00:00 +15°C° 0.2 mm 4 mps 748 mmHg 95%
    01:00 +14°C° 0.2 mm 4 mps 748 mmHg 95%
    02:00 +14°C° 0.2 mm 4 mps 748 mmHg 96%
    03:00 +14°C° 0.2 mm 4 mps 748 mmHg 97%
    04:00 +14°C° 0.1 mm 4 mps 748 mmHg 95%
    05:00 +13°C° 0.1 mm 4 mps 748 mmHg 94%
    06:00 +13°C° 0.1 mm 4 mps 748 mmHg 93%
    07:00 +14°C° 0 mm 4 mps 748 mmHg 87%
    08:00 +16°C° 0 mm 3 mps 749 mmHg 81%
    09:00 +17°C° 0 mm 3 mps 749 mmHg 75%
    10:00 +17°C° 0 mm 4 mps 749 mmHg 72%
    11:00 +18°C° 0 mm 4 mps 749 mmHg 68%
    12:00 +18°C° 0 mm 4 mps 749 mmHg 65%
    13:00 +18°C° 0.1 mm 4 mps 749 mmHg 65%
    14:00 +18°C° 0.1 mm 3 mps 748 mmHg 66%
    15:00 +18°C° 0.1 mm 3 mps 748 mmHg 67%
    16:00 +17°C° 0.1 mm 3 mps 748 mmHg 71%
    17:00 +16°C° 0.1 mm 2 mps 748 mmHg 76%
    18:00 +16°C° 0.1 mm 2 mps 748 mmHg 80%
    19:00 +15°C° 0 mm 1 mps 748 mmHg 80%
    20:00 +14°C° 0 mm 1 mps 748 mmHg 81%
    21:00 +13°C° 0 mm 1 mps 748 mmHg 81%
    22:00 +13°C° 0 mm 1 mps 748 mmHg 84%
    23:00 +12°C° 0 mm 2 mps 748 mmHg 87%

    28 May, Tuesday

    Time Temperature Precipitation Wind Pressure Humidity
    00:00 +12°C° 0 mm 2 mps 747 mmHg 90%
    01:00 +10°C° 0 mm 3 mps 747 mmHg 92%
    02:00 +9°C° 0 mm 3 mps 747 mmHg 94%
    03:00 +9°C° 0 mm 3 mps 746 mmHg 96%
    04:00 +9°C° 0.1 mm 3 mps 746 mmHg 95%
    05:00 +10°C° 0.1 mm 4 mps 746 mmHg 94%
    06:00 +11°C° 0.1 mm 4 mps 746 mmHg 94%
    07:00 +12°C° 0.6 mm 4 mps 746 mmHg 89%
    08:00 +13°C° 0.6 mm 5 mps 746 mmHg 84%
    09:00 +14°C° 0.6 mm 5 mps 746 mmHg 79%
    10:00 +14°C° 1.1 mm 5 mps 746 mmHg 78%
    11:00 +15°C° 1.1 mm 5 mps 746 mmHg 77%
    12:00 +15°C° 1.1 mm 5 mps 746 mmHg 77%
    13:00 +15°C° 1 mm 5 mps 746 mmHg 77%
    14:00 +15°C° 1 mm 5 mps 746 mmHg 77%
    15:00 +15°C° 1 mm 5 mps 747 mmHg 77%
    16:00 +14°C° 0.4 mm 4 mps 747 mmHg 79%
    17:00 +14°C° 0.4 mm 4 mps 747 mmHg 81%
    18:00 +13°C° 0.4 mm 3 mps 748 mmHg 84%
    19:00 +12°C° 0 mm 3 mps 748 mmHg 86%
    20:00 +10°C° 0 mm 2 mps 749 mmHg 88%
    21:00 +9°C° 0 mm 2 mps 749 mmHg 90%
    22:00 +8°C° 0 mm 2 mps 750 mmHg 91%
    23:00 +9°C° 0 mm 1 mps 750 mmHg 92%

    29 May, Wednesday

    Time Temperature Precipitation Wind Pressure Humidity
    00:00 +8°C° 0 mm 1 mps 750 mmHg 93%
    01:00 +8°C° 0 mm 1 mps 750 mmHg 94%
    02:00 +7°C° 0 mm 1 mps 751 mmHg 94%
    03:00 +7°C° 0 mm 1 mps 751 mmHg 95%
    04:00 +8°C° 0 mm 1 mps 752 mmHg 95%
    05:00 +9°C° 0 mm 1 mps 752 mmHg 94%
    06:00 +10°C° 0 mm 1 mps 753 mmHg 94%
    07:00 +11°C° 0.1 mm 1 mps 753 mmHg 90%
    08:00 +12°C° 0.1 mm 1 mps 753 mmHg 86%
    09:00 +13°C° 0.1 mm 2 mps 754 mmHg 82%
    10:00 +14°C° 0.1 mm 1 mps 754 mmHg 77%
    11:00 +15°C° 0.1 mm 1 mps 754 mmHg 72%
    12:00 +16°C° 0.1 mm 1 mps 754 mmHg 67%
    13:00 +18°C° 0.1 mm 1 mps 754 mmHg 65%
    14:00 +18°C° 0.1 mm 1 mps 754 mmHg 63%
    15:00 +19°C° 0.1 mm 1 mps 754 mmHg 60%
    16:00 +18°C° 0.1 mm 1 mps 755 mmHg 65%
    17:00 +18°C° 0.1 mm 1 mps 755 mmHg 70%
    18:00 +16°C° 0.1 mm 0 mps 755 mmHg 75%
    19:00 +15°C° 0 mm 1 mps 755 mmHg 77%
    20:00 +13°C° 0 mm 1 mps 756 mmHg 80%
    21:00 +12°C° 0 mm 2 mps 756 mmHg 82%
    22:00 +10°C° 0 mm 2 mps 756 mmHg 86%
    23:00 +9°C° 0 mm 2 mps 756 mmHg 90%

    30 May, Thursday

    Time Temperature Precipitation Wind Pressure Humidity
    00:00 +9°C° 0 mm 3 mps 756 mmHg 94%
    01:00 +8°C° 0 mm 3 mps 756 mmHg 91%
    02:00 +8°C° 0 mm 3 mps 756 mmHg 89%
    03:00 +7°C° 0 mm 3 mps 755 mmHg 87%
    04:00 +8°C° 0 mm 4 mps 755 mmHg 86%
    05:00 +9°C° 0 mm 5 mps 755 mmHg 85%
    06:00 +10°C° 0 mm 6 mps 755 mmHg 84%
    07:00 +11°C° 0 mm 6 mps 755 mmHg 84%
    08:00 +14°C° 0 mm 6 mps 755 mmHg 83%
    09:00 +15°C° 0 mm 7 mps 755 mmHg 82%
    10:00 +15°C° 0.1 mm 7 mps 755 mmHg 84%
    11:00 +15°C° 0.1 mm 7 mps 755 mmHg 86%
    12:00 +15°C° 0.1 mm 7 mps 755 mmHg 88%
    13:00 +16°C° 0.1 mm 7 mps 754 mmHg 87%
    14:00 +16°C° 0.1 mm 7 mps 754 mmHg 86%
    15:00 +16°C° 0.1 mm 7 mps 754 mmHg 85%
    16:00 +16°C° 0.1 mm 6 mps 754 mmHg 85%
    17:00 +16°C° 0.1 mm 6 mps 754 mmHg 85%
    18:00 +16°C° 0.1 mm 6 mps 753 mmHg 86%
    19:00 +15°C° 0 mm 5 mps 753 mmHg 87%
    20:00 +15°C° 0 mm 5 mps 753 mmHg 89%
    21:00 +14°C° 0 mm 5 mps 753 mmHg 91%
    22:00 +14°C° 0.1 mm 5 mps 753 mmHg 91%
    23:00 +14°C° 0.1 mm 5 mps 753 mmHg 92%
    Show more